[[{"header":{"parameterUnit":"m.s-1","parameterCategory":2,"la1":30.2991,"la2":30.254,"lo1":-89.0895,"lo2":-89.0444,"dy":0.0017,"dx":0.0017,"nx":28,"ny":28,"refTime":"2025-08-17T21:00:00:Z","depth":"0","parameterNumber":2,"parameterNumberName":"U-component_of_CURRENTS"},"data":[0,0,0,0,0,0,0,0,0,0,0,0,0,0,0,0,0,0,0,0,0,0,0,0,0,0,0,0,0,0,0,0,0,0,0,0,0,0,0,0,0,0,0,0,0,0,0,0,0,0,0,0,0,0,0,0,0,0,0.1842,0.1842,0,0.1863,0.1863,0.1864,0.1849,0.1848,0.1848,0.1847,0.1882,0.1883,0.1885,0,0,0,0,0,0,0,0,0,0,0,0,0,0.1829,0.1829,0.1842,0.1842,0.1842,0.1863,0.1863,0.1864,0.1849,0.1848,0.1847,0.1847,0.1882,0.1883,0.1885,0,0,0,0,0,0,0,0,0,0,0,0,0,0.1841,0.1829,0.1842,0.1838,0.1838,0.1863,0.1863,0.1864,0.1849,0.1848,0.1847,0.1846,0.1881,0.1883,0.1885,0.1918,0,0,0.1892,0.1893,0,0,0,0,0,0,0,0,0.184,0.1841,0.1838,0.1838,0.1838,0.1853,0.1872,0.1883,0.1849,0.1844,0.1847,0.1846,0.1874,0.1877,0.1883,0.192,0.1922,0.1893,0.1894,0.1895,0.1896,0,0,0,0,0,0,0,0.1839,0.184,0.185,0.1838,0.1838,0.1849,0.1849,0.1874,0.1865,0.1845,0.1844,0.1847,0.1874,0.188,0.1883,0.1922,0.1893,0.1895,0.1896,0.1897,0.2027,0.2029,0,0,0,0,0,0,0.1836,0.1839,0.1849,0.1851,0.1837,0.185,0.185,0.1849,0.1864,0.1865,0.1848,0.1846,0.1877,0.1881,0.1885,0.1957,0.1895,0.1897,0.1898,0.2025,0.2028,0.203,0,0,0,0,0,0,0.1836,0.1837,0.1848,0.1846,0.1848,0.1851,0.185,0.185,0.1857,0.1866,0.1867,0.1855,0.1876,0.1881,0.1928,0.1957,0.1898,0.19,0.2023,0.2026,0.2029,0.2082,0,0,0,0,0,0,0.1835,0.1836,0.1842,0.1846,0.1848,0.1882,0.1851,0.1851,0.186,0.1858,0.1873,0.1875,0.1876,0.1925,0.193,0.1959,0.1902,0.202,0.2024,0.2028,0.2078,0.2087,0.2094,0,0,0,0,0,0.1835,0.1849,0.1842,0.1844,0.1853,0.1883,0.1887,0.1885,0.1861,0.1883,0.1893,0.1874,0.1953,0.1929,0.1934,0.1965,0.2018,0.2023,0.2027,0.2074,0.2085,0.2094,0,0,0,0,0,0,0.1848,0.1849,0.1841,0.1855,0.1875,0.1881,0.1899,0.189,0.1913,0.1907,0.1905,0.191,0.1964,0.1962,0.1934,0.2016,0.1981,0.1987,0.2015,0.2025,0.2033,0.2033,0.1904,0,0,0,0,0,0.1853,0.186,0.187,0.1882,0.1893,0.1894,0.1905,0.1904,0.192,0.1927,0.1935,0.1952,0.1989,0.2003,0.2033,0.2077,0.2088,0.2101,0.2109,0.2116,0.2121,0.2184,0.2199,0.2045,0.2045,0.2045,0,0,0.186,0.1862,0.1865,0.1885,0.1895,0.1921,0.1899,0.1922,0.1945,0.193,0.1967,0.1986,0.201,0.2064,0.2086,0.2063,0.2165,0.2122,0.2127,0.2129,0.2191,0.2206,0.2219,0.2048,0.2048,0.2047,0,0,0.1879,0.1882,0.1896,0.1916,0.1937,0.1947,0.1954,0.1969,0.1982,0.2023,0.2023,0.2066,0.2101,0.2135,0.2153,0.2228,0.2213,0.2228,0.2263,0.2325,0.2338,0.2349,0.2377,0.2391,0.2225,0.2225,0.2225,0,0.189,0.1897,0.191,0.1932,0.1947,0.1958,0.1982,0.201,0.2037,0.2053,0.2044,0.2119,0.2141,0.2213,0.224,0.2248,0.2263,0.2219,0.2335,0.2347,0.2358,0.2383,0.2398,0.2228,0.2228,0.2228,0.2227,0,0.1917,0.1928,0.1943,0.1968,0.1997,0.2021,0.2056,0.2088,0.2096,0.2111,0.2178,0.2219,0.2258,0.2279,0.2283,0.237,0.2349,0.2343,0.2305,0.2376,0.2399,0.2413,0.2233,0.2232,0.2231,0.223,0,0,0.192,0.1952,0.1956,0.1968,0.2012,0.2037,0.2093,0.2141,0.2169,0.2212,0.2257,0.2333,0.2338,0.2362,0.2379,0.2433,0.2527,0.2417,0.2419,0.2437,0.264,0.2424,0.2418,0.2536,0.2539,0.2542,0.2622,0,0.1932,0.1965,0.1985,0.2025,0.2044,0.2081,0.2131,0.218,0.2217,0.2271,0.2326,0.238,0.2375,0.2401,0.2459,0.2518,0.2567,0.2504,0.2576,0.2578,0.2371,0.2429,0.2259,0.2298,0.2636,0.2638,0.264,0,0.1936,0.1961,0.1992,0.2038,0.2053,0.2085,0.2154,0.2204,0.2286,0.2316,0.2376,0.2412,0.2511,0.2494,0.2624,0.258,0.2615,0.2651,0.2655,0.2443,0.2387,0.2285,0.231,0.2203,0.2661,0.2659,0.2657,0,0.1909,0.1958,0.1978,0.1995,0.2061,0.2088,0.213,0.2206,0.2256,0.2347,0.2387,0.2485,0.2544,0.2622,0.2676,0.2668,0.2796,0.2795,0.2634,0.262,0.2481,0.2446,0.24,0.2889,0.2888,0.2888,0.2888,0,0.1896,0.1915,0.1964,0.1978,0.2022,0.2071,0.2128,0.2182,0.2269,0.2335,0.2404,0.2472,0.2582,0.2654,0.2703,0.2686,0.2818,0.2644,0.2629,0.249,0.2456,0.2358,0.2338,0.2891,0.2891,0.289,0.2889,0,0.1859,0.1886,0.1917,0.1982,0.2003,0.2036,0.2125,0.2184,0.2248,0.2342,0.2379,0.249,0.2551,0.2615,0.2735,0.2689,0.2606,0.2681,0.2477,0.2432,0.2113,0.2103,0.1991,0.1955,0.2516,0.2512,0.2507,0,0.1842,0.1849,0.191,0.1949,0.1978,0.2035,0.2093,0.2167,0.2231,0.2349,0.2403,0.247,0.2505,0.254,0.2476,0.2465,0.2441,0.2278,0.2216,0.2058,0.2042,0.2,0.198,0.2083,0.2076,0.207,0.2065,0,0.1825,0.184,0.1881,0.1954,0.2011,0.2064,0.2139,0.2169,0.2269,0.2319,0.2385,0.2412,0.238,0.2251,0.2162,0.2144,0.2092,0.2146,0.2079,0.1755,0.1621,0.1589,0.2057,0.2012,0.2017,0.2021,0.2024,0.2026,0.1824,0.1849,0.1912,0.1979,0.2041,0.2086,0.2094,0.2159,0.2203,0.2224,0.2309,0.2239,0.2077,0.1896,0.1856,0.1561,0.1696,0.1474,0.15,0.1491,0.1357,0.1651,0.1507,0.1509,0.1511,0.1513,0.1515,0,0.1832,0.1878,0.1947,0.2012,0.206,0.2091,0.2132,0.2104,0.2093,0.2081,0.2076,0.1804,0.1598,0.1429,0.1098,0.0961,0.0986,0.0907,0.0878,0.0917,0.126,0.1135,0.0784,0.0784,0.0784,0.0784,0.0784,0.0784,0.1854,0.1911,0.1946,0.2017,0.2053,0.2043,0.2031,0.1968,0.1909,0.1702,0.1496,0.1412,0.1161,0.0805,0.0531,0.0511,0.0509,0.0392,0.0507,0.0779,0.0837,0.0892,0.0768,0.0346,0.0345,0.011,0.0107,0.0106]},{"header":{"parameterUnit":"m.s-1","parameterCategory":2,"la1":30.2991,"la2":30.254,"lo1":-89.0895,"lo2":-89.0444,"dy":0.0017,"dx":0.0017,"nx":28,"ny":28,"refTime":"2025-08-17T21:00:00:Z","depth":"0","parameterNumber":3,"parameterNumberName":"V-component_of_CURRENTS"},"data":[0,0,0,0,0,0,0,0,0,0,0,0,0,0,0,0,0,0,0,0,0,0,0,0,0,0,0,0,0,0,0,0,0,0,0,0,0,0,0,0,0,0,0,0,0,0,0,0,0,0,0,0,0,0,0,0,0,0,0.0263,0.0263,0,0.0287,0.0288,0.0288,0.0289,0.0289,0.0289,0.0289,0.0312,0.0312,0.0313,0,0,0,0,0,0,0,0,0,0,0,0,0,0.0223,0.0224,0.0263,0.0263,0.0264,0.0287,0.0288,0.0288,0.0289,0.0289,0.0289,0.0288,0.0311,0.0312,0.0313,0,0,0,0,0,0,0,0,0,0,0,0,0,0.0243,0.0224,0.0263,0.0267,0.0268,0.0287,0.0288,0.0288,0.0289,0.0289,0.0289,0.0288,0.0311,0.0312,0.0314,0.0329,0,0,0.0317,0.0318,0,0,0,0,0,0,0,0,0.0242,0.0245,0.0266,0.0267,0.0268,0.0285,0.0282,0.0302,0.029,0.0281,0.0289,0.0288,0.0303,0.0305,0.031,0.033,0.0331,0.0318,0.0318,0.0319,0.0319,0,0,0,0,0,0,0,0.0241,0.0244,0.0272,0.0267,0.0268,0.027,0.0272,0.0286,0.0294,0.0282,0.0282,0.0285,0.0303,0.0309,0.0311,0.0332,0.0318,0.0319,0.0319,0.032,0.0393,0.0394,0,0,0,0,0,0,0.0238,0.0243,0.0272,0.0273,0.0254,0.0271,0.0274,0.028,0.0294,0.0295,0.0285,0.0285,0.0307,0.0309,0.0312,0.036,0.0319,0.032,0.0321,0.0392,0.0393,0.0395,0,0,0,0,0,0,0.0238,0.0241,0.0271,0.0258,0.0262,0.0272,0.0279,0.028,0.0286,0.0297,0.0298,0.0289,0.0307,0.031,0.0334,0.036,0.0321,0.0322,0.0391,0.0393,0.0394,0.0438,0,0,0,0,0,0,0.0236,0.0241,0.0245,0.0258,0.0263,0.029,0.0279,0.0281,0.0289,0.0288,0.0301,0.0302,0.0307,0.0332,0.0335,0.0361,0.0323,0.0389,0.0391,0.0394,0.0436,0.0442,0.0447,0,0,0,0,0,0.0235,0.0247,0.0245,0.0249,0.0269,0.029,0.0293,0.0298,0.0289,0.03,0.0309,0.0302,0.0348,0.0334,0.0338,0.0364,0.0388,0.0391,0.0393,0.0433,0.044,0.0447,0,0,0,0,0,0,0.0232,0.0248,0.0247,0.0263,0.0277,0.0291,0.0301,0.03,0.0315,0.0314,0.0316,0.032,0.0352,0.0351,0.0335,0.0392,0.0367,0.0371,0.0396,0.0403,0.0409,0.0438,0.0324,0,0,0,0,0,0.0233,0.0246,0.0261,0.0273,0.0281,0.029,0.0298,0.0302,0.0316,0.0321,0.0329,0.0342,0.0366,0.0378,0.0394,0.0424,0.0442,0.0443,0.0449,0.0454,0.048,0.0543,0.0558,0.0403,0.0403,0.0403,0,0,0.0235,0.0246,0.0252,0.0274,0.0284,0.031,0.0294,0.0312,0.0336,0.0323,0.0355,0.0361,0.0378,0.0415,0.0429,0.0417,0.05,0.0457,0.0461,0.0486,0.0548,0.0563,0.0576,0.0405,0.0405,0.0405,0,0,0.0252,0.0256,0.0276,0.0291,0.0312,0.0323,0.0328,0.0345,0.0355,0.0384,0.0386,0.0416,0.0433,0.0466,0.0481,0.0529,0.0527,0.052,0.0576,0.0636,0.065,0.0662,0.0674,0.0688,0.0524,0.0524,0.0524,0,0.0254,0.0282,0.0285,0.0312,0.0332,0.0331,0.0363,0.0378,0.04,0.0423,0.04,0.0466,0.0469,0.0543,0.0555,0.0546,0.056,0.0547,0.0645,0.0658,0.067,0.068,0.0694,0.0527,0.0527,0.0526,0.0526,0,0.0292,0.0313,0.0328,0.0364,0.0385,0.0412,0.0434,0.0456,0.0461,0.048,0.054,0.0553,0.0599,0.0597,0.0589,0.0678,0.0651,0.0643,0.063,0.0688,0.0694,0.0708,0.053,0.0529,0.0529,0.0528,0,0,0.0303,0.0347,0.0352,0.038,0.0416,0.0441,0.0486,0.0538,0.0581,0.0598,0.0669,0.0699,0.0706,0.0726,0.0725,0.0771,0.0845,0.0743,0.0744,0.0758,0.0948,0.0891,0.0899,0.0854,0.0857,0.086,0.0907,0,0.0335,0.0391,0.0408,0.0467,0.05,0.0522,0.0569,0.0613,0.0644,0.071,0.0743,0.0802,0.0755,0.0785,0.0827,0.086,0.0889,0.0831,0.0889,0.089,0.0835,0.0918,0.0886,0.0924,0.0921,0.0923,0.0925,0,0.0369,0.0406,0.0465,0.0529,0.0547,0.0583,0.0667,0.0709,0.0793,0.0819,0.0884,0.0908,0.0994,0.0937,0.1026,0.099,0.0973,0.0978,0.098,0.0931,0.0861,0.0871,0.0949,0.0922,0.0946,0.0944,0.0943,0,0.0383,0.0447,0.0497,0.0518,0.0589,0.0627,0.0669,0.0744,0.0801,0.0901,0.0965,0.1042,0.1109,0.1127,0.1123,0.1088,0.1205,0.1157,0.1082,0.1074,0.1064,0.1051,0.1133,0.1212,0.1211,0.1211,0.1211,0,0.0413,0.0454,0.0506,0.0537,0.0608,0.0649,0.0735,0.0783,0.0883,0.0986,0.1025,0.1131,0.1166,0.1226,0.1187,0.1189,0.1254,0.1121,0.1107,0.1072,0.106,0.1047,0.1038,0.1213,0.1213,0.1212,0.1212,0,0.0424,0.0454,0.0517,0.0591,0.0614,0.0666,0.0764,0.0838,0.0919,0.1064,0.111,0.1233,0.1317,0.1311,0.1357,0.1282,0.1263,0.1241,0.1171,0.1148,0.1031,0.1025,0.112,0.113,0.1183,0.1182,0.1181,0,0.044,0.0472,0.0546,0.0585,0.0619,0.0694,0.0757,0.0843,0.0934,0.1135,0.1224,0.1346,0.1447,0.147,0.1371,0.1299,0.1267,0.119,0.112,0.1053,0.1037,0.1039,0.1042,0.1109,0.1108,0.1107,0.1106,0,0.0478,0.0496,0.0545,0.0615,0.0678,0.0761,0.0861,0.0936,0.1078,0.1212,0.1406,0.1506,0.1526,0.1475,0.1349,0.128,0.1184,0.1164,0.1149,0.1046,0.1008,0.0999,0.1011,0.1098,0.1098,0.1099,0.11,0.11,0.0501,0.0536,0.059,0.0655,0.073,0.0834,0.0916,0.1046,0.1203,0.1421,0.1507,0.1642,0.1538,0.1379,0.1296,0.1082,0.1126,0.1004,0.1017,0.1035,0.102,0.0983,0.1016,0.1016,0.1017,0.1017,0.1017,0,0.0527,0.0565,0.0632,0.0718,0.0808,0.0841,0.0996,0.1099,0.1291,0.1458,0.1616,0.1577,0.1474,0.1312,0.1041,0.0948,0.0938,0.0913,0.0929,0.095,0.0965,0.0932,0.0884,0.0884,0.0884,0.0884,0.0884,0.0884,0.0545,0.0598,0.0629,0.0765,0.0838,0.0966,0.1059,0.1216,0.1341,0.1491,0.1511,0.1529,0.1369,0.1099,0.0912,0.0877,0.0886,0.0855,0.0891,0.0891,0.09,0.0909,0.0878,0.0819,0.0819,0.0871,0.0871,0.0871]}],[{"header":{"parameterUnit":"m.s-1","parameterCategory":2,"la1":30.2991,"la2":30.254,"lo1":-89.0895,"lo2":-89.0444,"dy":0.0017,"dx":0.0017,"nx":28,"ny":28,"refTime":"2025-08-17T21:00:00:Z","depth":"2","parameterNumber":2,"parameterNumberName":"U-component_of_CURRENTS"},"data":[0,0,0,0,0,0,0,0,0,0,0,0,0,0,0,0,0,0,0,0,0,0,0,0,0,0,0,0,0,0,0,0,0,0,0,0,0,0,0,0,0,0,0,0,0,0,0,0,0,0,0,0,0,0,0,0,0,0,0.1507,0.1507,0,0.1496,0.1496,0.1496,0.1477,0.1477,0.1477,0.1476,0.1524,0.1526,0.1528,0,0,0,0,0,0,0,0,0,0,0,0,0,0.1522,0.1522,0.1507,0.1507,0.1507,0.1496,0.1496,0.1496,0.1477,0.1477,0.1476,0.1476,0.1524,0.1526,0.1528,0,0,0,0,0,0,0,0,0,0,0,0,0,0.1514,0.1522,0.1507,0.1496,0.1495,0.1496,0.1496,0.1496,0.1477,0.1477,0.1476,0.1476,0.1523,0.1526,0.1528,0.1554,0,0,0.1536,0.1537,0,0,0,0,0,0,0,0,0.1515,0.1514,0.1498,0.1497,0.1496,0.1487,0.1519,0.1518,0.1478,0.1485,0.1476,0.1476,0.1518,0.1521,0.1519,0.1557,0.1559,0.1536,0.1537,0.1538,0.1539,0,0,0,0,0,0,0,0.1515,0.1514,0.1503,0.1498,0.1496,0.1495,0.1493,0.1518,0.1506,0.1484,0.1482,0.1481,0.1517,0.1517,0.1521,0.1559,0.1536,0.1538,0.1539,0.154,0.1642,0.1643,0,0,0,0,0,0,0.1516,0.1515,0.1504,0.1503,0.1504,0.1495,0.1493,0.1491,0.1504,0.1505,0.1481,0.148,0.1513,0.1518,0.1522,0.1584,0.1538,0.1541,0.1542,0.1641,0.1643,0.1644,0,0,0,0,0,0,0.1516,0.1515,0.1504,0.1508,0.1507,0.1495,0.1493,0.1491,0.15,0.1501,0.1503,0.1494,0.1513,0.1519,0.154,0.1585,0.1542,0.1544,0.164,0.1642,0.1643,0.1689,0,0,0,0,0,0,0.1517,0.1515,0.1519,0.1508,0.1506,0.151,0.1493,0.1491,0.1499,0.1498,0.1513,0.1516,0.1513,0.1537,0.1543,0.1587,0.1546,0.1638,0.164,0.1643,0.1686,0.1692,0.1697,0,0,0,0,0,0.1517,0.1519,0.152,0.1518,0.151,0.1511,0.151,0.15,0.15,0.1507,0.1509,0.1516,0.1557,0.1539,0.1546,0.1592,0.1637,0.164,0.1642,0.1683,0.1691,0.1697,0,0,0,0,0,0,0.153,0.1517,0.1517,0.1516,0.1519,0.1508,0.1511,0.1512,0.152,0.1521,0.1524,0.1527,0.1562,0.157,0.1551,0.1628,0.1602,0.1607,0.1631,0.1638,0.1644,0.1643,0.1548,0,0,0,0,0,0.1535,0.1533,0.1527,0.153,0.1531,0.1528,0.153,0.1526,0.1528,0.1531,0.1544,0.1561,0.1579,0.16,0.1611,0.1658,0.1663,0.1694,0.17,0.1705,0.1709,0.1771,0.1783,0.1653,0.1653,0.1653,0,0,0.1542,0.1536,0.1536,0.1534,0.1533,0.1539,0.1528,0.1534,0.1547,0.1538,0.1567,0.1578,0.1591,0.163,0.165,0.1645,0.1738,0.1709,0.1713,0.1714,0.1775,0.1788,0.1799,0.1655,0.1655,0.1654,0,0,0.1551,0.155,0.1551,0.1558,0.156,0.1555,0.1562,0.1566,0.1574,0.1599,0.1597,0.1629,0.1663,0.1682,0.1695,0.1745,0.1757,0.1763,0.1807,0.1868,0.1879,0.1889,0.1881,0.189,0.1779,0.1779,0.1779,0,0.1557,0.1557,0.1554,0.1563,0.1566,0.1566,0.1573,0.1586,0.16,0.1624,0.1613,0.1669,0.1688,0.1736,0.1757,0.1761,0.1776,0.1779,0.1877,0.1887,0.1897,0.1886,0.1895,0.1781,0.1781,0.1781,0.1781,0,0.1574,0.1573,0.1577,0.1583,0.1592,0.1597,0.161,0.1634,0.1648,0.1669,0.1717,0.1727,0.177,0.1787,0.1791,0.1875,0.1854,0.1867,0.1859,0.1913,0.1897,0.1906,0.1785,0.1784,0.1783,0.1783,0,0,0.1565,0.158,0.1579,0.1588,0.1599,0.1609,0.164,0.167,0.1699,0.1733,0.1781,0.1821,0.1845,0.1861,0.1874,0.1929,0.2006,0.1941,0.1943,0.1931,0.2102,0.1949,0.1943,0.2052,0.2055,0.2057,0.2052,0,0.1568,0.158,0.1589,0.1607,0.161,0.1633,0.1664,0.1706,0.1729,0.1784,0.1826,0.1871,0.1869,0.1897,0.1956,0.2013,0.2038,0.2003,0.2053,0.2053,0.1911,0.1953,0.1786,0.1757,0.2061,0.2062,0.2064,0,0.1573,0.1574,0.1586,0.1616,0.1623,0.1648,0.1692,0.1723,0.1802,0.1833,0.189,0.1918,0.2014,0.1992,0.2099,0.2086,0.2095,0.2111,0.2112,0.1961,0.1918,0.176,0.1762,0.2079,0.2077,0.2076,0.2075,0,0.1556,0.1574,0.1579,0.1591,0.1626,0.1657,0.169,0.175,0.1779,0.1875,0.1914,0.2003,0.2064,0.212,0.2155,0.2157,0.2239,0.2246,0.2084,0.2071,0.1931,0.1901,0.2284,0.2284,0.2284,0.2284,0.2284,0,0.1548,0.1552,0.1581,0.1586,0.1616,0.166,0.1692,0.175,0.1817,0.1866,0.1949,0.1981,0.2111,0.2161,0.2181,0.2154,0.2263,0.2086,0.2073,0.1935,0.1906,0.2194,0.2184,0.2284,0.2284,0.2284,0.2284,0,0.1525,0.1539,0.1549,0.1589,0.1606,0.1638,0.1689,0.1721,0.1797,0.1861,0.1904,0.2018,0.2086,0.213,0.2215,0.2167,0.2164,0.2104,0.1891,0.1851,0.1942,0.1935,0.195,0.1945,0.1941,0.1937,0.1934,0,0.1508,0.1509,0.1541,0.1555,0.1575,0.1611,0.1641,0.1712,0.1736,0.1854,0.1893,0.1979,0.2001,0.2033,0.198,0.1938,0.2034,0.173,0.1693,0.1929,0.1916,0.1915,0.1913,0.152,0.1514,0.1509,0.1504,0,0.1472,0.1489,0.1502,0.1521,0.1554,0.1574,0.1622,0.1629,0.1719,0.1757,0.182,0.1849,0.1856,0.1743,0.1669,0.1628,0.1735,0.1619,0.1973,0.1612,0.1518,0.1506,0.152,0.1459,0.1464,0.1467,0.1469,0.1471,0.1453,0.1453,0.1471,0.1491,0.1524,0.1545,0.155,0.1564,0.158,0.161,0.1683,0.1644,0.1622,0.1414,0.1334,0.1263,0.1394,0.1331,0.1351,0.1374,0.1307,0.1209,0.1077,0.1079,0.1081,0.1082,0.1084,0,0.1431,0.1435,0.144,0.1459,0.1469,0.1524,0.1541,0.1499,0.147,0.1451,0.1445,0.1247,0.1126,0.1114,0.0916,0.086,0.0896,0.0827,0.0884,0.0928,0.0967,0.0883,0.0539,0.0537,0.0536,0.0534,0,0,0.1422,0.141,0.1401,0.1391,0.1431,0.1441,0.1458,0.1366,0.1296,0.1156,0.1071,0.1102,0.1079,0.0812,0.0741,0.0618,0.0783,0.058,0.1015,0.1129,0.1167,0.1246,0.1163,0,0,0,0,0]},{"header":{"parameterUnit":"m.s-1","parameterCategory":2,"la1":30.2991,"la2":30.254,"lo1":-89.0895,"lo2":-89.0444,"dy":0.0017,"dx":0.0017,"nx":28,"ny":28,"refTime":"2025-08-17T21:00:00:Z","depth":"2","parameterNumber":3,"parameterNumberName":"V-component_of_CURRENTS"},"data":[0,0,0,0,0,0,0,0,0,0,0,0,0,0,0,0,0,0,0,0,0,0,0,0,0,0,0,0,0,0,0,0,0,0,0,0,0,0,0,0,0,0,0,0,0,0,0,0,0,0,0,0,0,0,0,0,0,0,0.0083,0.0083,0,0.009,0.009,0.009,0.009,0.009,0.0089,0.0089,0.0106,0.0106,0.0107,0,0,0,0,0,0,0,0,0,0,0,0,0,0.0056,0.0056,0.0083,0.0083,0.0083,0.009,0.009,0.009,0.009,0.009,0.0089,0.0089,0.0105,0.0106,0.0107,0,0,0,0,0,0,0,0,0,0,0,0,0,0.0065,0.0057,0.0083,0.0084,0.0084,0.009,0.009,0.009,0.009,0.009,0.0089,0.0089,0.0105,0.0106,0.0107,0.0113,0,0,0.0109,0.0109,0,0,0,0,0,0,0,0,0.0065,0.0066,0.0084,0.0084,0.0084,0.0089,0.0086,0.0099,0.009,0.0087,0.0089,0.0089,0.0101,0.0102,0.0103,0.0114,0.0115,0.0109,0.0109,0.011,0.011,0,0,0,0,0,0,0,0.0064,0.0066,0.0085,0.0084,0.0084,0.008,0.0081,0.0089,0.0095,0.0087,0.0087,0.0089,0.0101,0.0102,0.0104,0.0115,0.0109,0.011,0.011,0.011,0.0152,0.0152,0,0,0,0,0,0,0.0065,0.0065,0.0085,0.0086,0.0075,0.008,0.0082,0.0087,0.0094,0.0095,0.0089,0.0089,0.0101,0.0103,0.0104,0.0131,0.011,0.011,0.0111,0.0151,0.0152,0.0152,0,0,0,0,0,0,0.0065,0.0067,0.0085,0.0076,0.0078,0.0081,0.0087,0.0088,0.009,0.0096,0.0097,0.0091,0.0101,0.0103,0.0115,0.0131,0.0111,0.0111,0.015,0.0151,0.0152,0.0173,0,0,0,0,0,0,0.0064,0.0067,0.007,0.0076,0.0078,0.0091,0.0087,0.0088,0.0091,0.0091,0.0098,0.0099,0.0101,0.0114,0.0115,0.0132,0.0112,0.0149,0.0151,0.0152,0.0171,0.0175,0.0177,0,0,0,0,0,0.0063,0.007,0.0071,0.0073,0.0083,0.0092,0.0093,0.0094,0.0092,0.0095,0.01,0.0099,0.0123,0.0115,0.0117,0.0133,0.0149,0.015,0.0152,0.017,0.0174,0.0177,0,0,0,0,0,0,0.006,0.007,0.0071,0.0081,0.0087,0.0092,0.0096,0.0096,0.0102,0.0102,0.0105,0.0107,0.0122,0.0125,0.0116,0.0149,0.0137,0.0139,0.015,0.0154,0.0157,0.0164,0.0113,0,0,0,0,0,0.0061,0.0069,0.0077,0.0085,0.0088,0.0092,0.0095,0.0097,0.0103,0.0105,0.0111,0.0119,0.013,0.0139,0.0145,0.0164,0.0164,0.0177,0.018,0.0182,0.019,0.0224,0.0231,0.0157,0.0157,0.0157,0,0,0.0061,0.0069,0.0073,0.0085,0.0089,0.0101,0.0093,0.0101,0.0114,0.0106,0.0125,0.0126,0.0135,0.0155,0.0163,0.016,0.0195,0.0184,0.0186,0.0193,0.0227,0.0234,0.0241,0.0158,0.0158,0.0158,0,0,0.007,0.0074,0.0086,0.0094,0.0103,0.0107,0.011,0.0118,0.0124,0.0139,0.0139,0.0152,0.0165,0.018,0.0187,0.0211,0.0206,0.0213,0.0239,0.0272,0.0279,0.0285,0.0257,0.026,0.0219,0.0219,0.0219,0,0.0069,0.0089,0.0089,0.0105,0.0115,0.0111,0.0128,0.0135,0.0146,0.0162,0.0148,0.0176,0.018,0.0212,0.0221,0.0219,0.0218,0.0224,0.0277,0.0283,0.0288,0.0259,0.0262,0.022,0.022,0.022,0.022,0,0.0092,0.0106,0.0114,0.0134,0.0142,0.0156,0.0166,0.0178,0.0181,0.0193,0.0217,0.0216,0.024,0.0239,0.0238,0.0282,0.0257,0.0272,0.0268,0.0297,0.0263,0.0267,0.0222,0.0222,0.0221,0.0221,0,0,0.0095,0.0124,0.0128,0.0145,0.0161,0.0173,0.0195,0.0222,0.0247,0.0249,0.0288,0.0292,0.0295,0.0304,0.03,0.0322,0.0345,0.0317,0.0318,0.0288,0.0377,0.0355,0.0356,0.0376,0.0378,0.0379,0.0324,0,0.0114,0.0149,0.0157,0.0191,0.0211,0.0219,0.0241,0.0265,0.0281,0.0319,0.0324,0.0356,0.0319,0.0336,0.0351,0.0373,0.0361,0.0355,0.0355,0.0354,0.0332,0.0363,0.0374,0.0328,0.0327,0.0327,0.0328,0,0.0138,0.0159,0.0194,0.023,0.0239,0.0258,0.0299,0.032,0.0366,0.0382,0.0407,0.0419,0.0457,0.042,0.0437,0.044,0.0403,0.039,0.0389,0.037,0.0341,0.0307,0.0334,0.0333,0.0333,0.0332,0.0332,0,0.015,0.0187,0.0217,0.023,0.0265,0.0287,0.0307,0.0344,0.0375,0.0435,0.0477,0.0499,0.0542,0.0517,0.049,0.048,0.0493,0.048,0.0396,0.0391,0.0401,0.0396,0.0459,0.0459,0.0459,0.0459,0.046,0,0.0174,0.0198,0.0228,0.0247,0.0286,0.0305,0.0352,0.0377,0.0429,0.0497,0.0516,0.0577,0.0579,0.0588,0.0523,0.0479,0.0517,0.0403,0.0394,0.0403,0.0399,0.0414,0.041,0.0457,0.0458,0.0458,0.0458,0,0.0185,0.0204,0.0241,0.028,0.0294,0.0324,0.0376,0.0414,0.0464,0.0557,0.059,0.0666,0.0696,0.0639,0.0618,0.0541,0.0484,0.0434,0.0412,0.0403,0.0336,0.0333,0.0352,0.0351,0.035,0.035,0.0349,0,0.0194,0.0214,0.0259,0.0281,0.0301,0.0344,0.0376,0.0424,0.0477,0.0617,0.0675,0.0741,0.0799,0.0733,0.0622,0.0489,0.0465,0.0389,0.0376,0.0345,0.0334,0.0332,0.033,0.0371,0.0371,0.0371,0.037,0,0.0209,0.0224,0.0253,0.0291,0.0329,0.038,0.044,0.0491,0.0582,0.0685,0.0832,0.0895,0.0851,0.0774,0.059,0.0499,0.0423,0.0379,0.0396,0.0401,0.0361,0.035,0.0348,0.0368,0.0369,0.0369,0.0369,0.0369,0.0215,0.0235,0.0266,0.0303,0.0349,0.0423,0.0484,0.0578,0.0695,0.086,0.0909,0.0979,0.0884,0.0659,0.0542,0.0401,0.0397,0.0331,0.0333,0.0335,0.0353,0.0315,0.0312,0.0312,0.0312,0.0311,0.0311,0,0.0226,0.0245,0.0275,0.0336,0.0393,0.0416,0.053,0.0615,0.0783,0.0887,0.1003,0.0887,0.0796,0.0662,0.0456,0.0342,0.0342,0.0304,0.033,0.0333,0.0335,0.0353,0.0312,0.0312,0.0311,0.0311,0,0,0.0232,0.026,0.0271,0.0356,0.0408,0.0503,0.0578,0.0719,0.0806,0.0929,0.0943,0.0946,0.0791,0.0633,0.0507,0.0409,0.0393,0.0387,0.0397,0.0446,0.045,0.0359,0.0392,0,0,0,0,0]}],[{"header":{"parameterUnit":"m.s-1","parameterCategory":2,"la1":30.2991,"la2":30.254,"lo1":-89.0895,"lo2":-89.0444,"dy":0.0017,"dx":0.0017,"nx":28,"ny":28,"refTime":"2025-08-17T21:00:00:Z","depth":"4","parameterNumber":2,"parameterNumberName":"U-component_of_CURRENTS"},"data":[0,0,0,0,0,0,0,0,0,0,0,0,0,0,0,0,0,0,0,0,0,0,0,0,0,0,0,0,0,0,0,0,0,0,0,0,0,0,0,0,0,0,0,0,0,0,0,0,0,0,0,0,0,0,0,0,0,0,0.0767,0.0767,0,0.0753,0.0753,0.0753,0.0765,0.0766,0.0766,0.0767,0.0771,0.0771,0.077,0,0,0,0,0,0,0,0,0,0,0,0,0,0.0803,0.0802,0.0767,0.0767,0.0767,0.0753,0.0753,0.0753,0.0765,0.0766,0.0767,0.0767,0.0771,0.0771,0.077,0,0,0,0,0,0,0,0,0,0,0,0,0,0.0786,0.0802,0.0767,0.0773,0.0774,0.0754,0.0753,0.0753,0.0765,0.0766,0.0767,0.0768,0.0771,0.0771,0.077,0.0745,0,0,0.0767,0.0767,0,0,0,0,0,0,0,0,0.0787,0.0785,0.0772,0.0773,0.0773,0.0764,0.0767,0.0752,0.0765,0.0766,0.0767,0.0768,0.0771,0.077,0.0762,0.0745,0.0745,0.0767,0.0767,0.0767,0.0766,0,0,0,0,0,0,0,0.0788,0.0785,0.076,0.0772,0.0773,0.0776,0.0775,0.0764,0.0762,0.0766,0.0767,0.0768,0.0771,0.0763,0.0763,0.0745,0.0767,0.0767,0.0766,0.0766,0.0807,0.0809,0,0,0,0,0,0,0.0792,0.0786,0.076,0.076,0.0785,0.0775,0.0773,0.0764,0.0762,0.0763,0.0768,0.0769,0.0764,0.0763,0.0763,0.0796,0.0767,0.0766,0.0765,0.0806,0.0808,0.0809,0,0,0,0,0,0,0.0793,0.079,0.0761,0.0775,0.0772,0.0773,0.0763,0.0763,0.0779,0.0763,0.0764,0.0786,0.0765,0.0764,0.078,0.0794,0.0766,0.0765,0.0804,0.0806,0.0808,0.0823,0,0,0,0,0,0,0.0794,0.079,0.0793,0.0775,0.0771,0.0765,0.0762,0.0762,0.0778,0.078,0.0779,0.0779,0.0765,0.0782,0.078,0.0793,0.0764,0.0802,0.0805,0.0808,0.082,0.0825,0.083,0,0,0,0,0,0.0795,0.0791,0.0792,0.079,0.0772,0.0765,0.0764,0.0767,0.0778,0.0786,0.0793,0.078,0.08,0.0782,0.0779,0.0792,0.08,0.0804,0.0807,0.0818,0.0824,0.083,0,0,0,0,0,0,0.081,0.0792,0.0793,0.0785,0.0785,0.0769,0.0777,0.078,0.079,0.08,0.0789,0.0789,0.081,0.0806,0.0787,0.0818,0.0802,0.0805,0.0811,0.0817,0.0822,0.0819,0.0764,0,0,0,0,0,0.0814,0.0808,0.0795,0.0794,0.0795,0.0792,0.0794,0.0796,0.0798,0.0804,0.0804,0.0813,0.0817,0.0823,0.0824,0.0833,0.084,0.0847,0.0851,0.0855,0.0855,0.0901,0.091,0.0821,0.0821,0.0821,0,0,0.082,0.0811,0.0808,0.0798,0.0799,0.0794,0.0796,0.0805,0.0805,0.0801,0.0815,0.0826,0.0826,0.0839,0.0849,0.0839,0.0882,0.0859,0.0862,0.086,0.0906,0.0914,0.0922,0.0823,0.0823,0.0822,0,0,0.0822,0.0823,0.0817,0.0816,0.082,0.0814,0.0824,0.0822,0.0829,0.0841,0.0844,0.087,0.0872,0.0876,0.0877,0.0911,0.0905,0.0919,0.0934,0.098,0.0987,0.0993,0.0996,0.1002,0.092,0.092,0.092,0,0.0835,0.0818,0.0818,0.0813,0.0814,0.0827,0.0823,0.0826,0.0833,0.0843,0.0854,0.0885,0.0888,0.0903,0.0918,0.0919,0.0933,0.0906,0.0984,0.0991,0.0997,0.0998,0.1005,0.0921,0.0921,0.0921,0.0921,0,0.0824,0.082,0.0822,0.0815,0.0817,0.0821,0.0822,0.0837,0.0856,0.0863,0.0898,0.0911,0.0936,0.0942,0.0936,0.0982,0.0972,0.0983,0.0964,0.1007,0.1005,0.1012,0.0923,0.0922,0.0922,0.0922,0,0,0.0823,0.0814,0.0817,0.0811,0.0819,0.0813,0.0827,0.0836,0.0854,0.0882,0.091,0.0932,0.0963,0.0968,0.0976,0.1009,0.106,0.1017,0.1019,0.1008,0.1138,0.1019,0.1015,0.1092,0.1094,0.1096,0.1111,0,0.0819,0.0806,0.0804,0.0797,0.0789,0.0805,0.0808,0.0825,0.0858,0.0893,0.0927,0.0965,0.0965,0.0995,0.1028,0.1065,0.1084,0.1053,0.1108,0.1109,0.099,0.1022,0.1101,0.1116,0.1118,0.1119,0.112,0,0.0804,0.0795,0.0788,0.0776,0.0775,0.0781,0.0804,0.0812,0.0865,0.0888,0.0945,0.099,0.1048,0.105,0.1122,0.1108,0.1122,0.1138,0.1139,0.1028,0.1004,0.1071,0.1133,0.1132,0.1131,0.113,0.1129,0,0.079,0.0781,0.0776,0.0774,0.0768,0.0779,0.0788,0.0826,0.0835,0.0915,0.0956,0.1022,0.1076,0.1125,0.1163,0.1164,0.1225,0.1235,0.1127,0.1117,0.1212,0.1205,0.1274,0.1274,0.1274,0.1274,0.1274,0,0.0771,0.0765,0.0775,0.0769,0.0762,0.0773,0.0788,0.0807,0.0852,0.0872,0.097,0.1005,0.1106,0.1157,0.1178,0.1163,0.1243,0.1125,0.112,0.1215,0.1208,0.1215,0.1208,0.1275,0.1274,0.1274,0.1274,0,0.0746,0.0757,0.0741,0.0746,0.0755,0.0753,0.0771,0.0772,0.084,0.0881,0.0917,0.1014,0.1083,0.1141,0.1209,0.1169,0.1176,0.114,0.1209,0.1208,0.1032,0.1026,0.104,0.1036,0.1033,0.103,0.1028,0,0.0727,0.0723,0.0725,0.0707,0.0714,0.0721,0.0713,0.0757,0.0764,0.0869,0.0878,0.0984,0.104,0.1045,0.11,0.1113,0.1094,0.1075,0.1075,0.1017,0.1012,0.1011,0.1009,0.1022,0.1022,0.1021,0.102,0,0.0683,0.0697,0.0677,0.0643,0.0635,0.0615,0.0627,0.0636,0.0693,0.0778,0.0832,0.0883,0.0936,0.0985,0.0986,0.0995,0.1087,0.1041,0.1048,0.1048,0.0996,0.0994,0.0996,0.1008,0.101,0.1011,0.1012,0,0.0649,0.0616,0.0589,0.0545,0.0532,0.0498,0.0526,0.054,0.0566,0.0707,0.0717,0.0833,0.0923,0.092,0.0926,0.0922,0.0916,0.0882,0.0898,0.0911,0.0859,0.0775,0.0712,0,0,0,0,0,0.0609,0.054,0.0481,0.0421,0.0409,0.0402,0.0441,0.0478,0.0582,0.0593,0.0654,0.0707,0.0749,0.0801,0.0772,0.0842,0.0897,0.0799,0.0861,0.0945,0.0958,0.0907,0,0,0,0,0,0,0.0564,0.0513,0.0443,0.0325,0.0279,0.0254,0.0285,0.0359,0.038,0.0509,0.0547,0.0634,0.0693,0.0759,0.0752,0.0761,0.0775,0.086,0.0857,0.0937,0.0949,0.096,0.0912,0,0,0,0,0]},{"header":{"parameterUnit":"m.s-1","parameterCategory":2,"la1":30.2991,"la2":30.254,"lo1":-89.0895,"lo2":-89.0444,"dy":0.0017,"dx":0.0017,"nx":28,"ny":28,"refTime":"2025-08-17T21:00:00:Z","depth":"4","parameterNumber":3,"parameterNumberName":"V-component_of_CURRENTS"},"data":[0,0,0,0,0,0,0,0,0,0,0,0,0,0,0,0,0,0,0,0,0,0,0,0,0,0,0,0,0,0,0,0,0,0,0,0,0,0,0,0,0,0,0,0,0,0,0,0,0,0,0,0,0,0,0,0,0,0,0.006,0.006,0,0.0073,0.0073,0.0073,0.0078,0.0078,0.0078,0.0078,0.0097,0.0098,0.0099,0,0,0,0,0,0,0,0,0,0,0,0,0,0.0036,0.0036,0.0059,0.006,0.006,0.0073,0.0073,0.0073,0.0078,0.0078,0.0078,0.0078,0.0097,0.0098,0.0099,0,0,0,0,0,0,0,0,0,0,0,0,0,0.0047,0.0036,0.0059,0.0064,0.0064,0.0073,0.0073,0.0074,0.0078,0.0078,0.0078,0.0078,0.0097,0.0098,0.0099,0.0106,0,0,0.0101,0.0102,0,0,0,0,0,0,0,0,0.0047,0.0048,0.0063,0.0063,0.0064,0.0074,0.0072,0.0085,0.0078,0.0073,0.0078,0.0078,0.009,0.0091,0.0094,0.0107,0.0108,0.0101,0.0102,0.0102,0.0103,0,0,0,0,0,0,0,0.0046,0.0048,0.0065,0.0063,0.0064,0.0064,0.0066,0.0074,0.0082,0.0074,0.0074,0.0075,0.009,0.0094,0.0095,0.0108,0.0101,0.0102,0.0103,0.0103,0.0128,0.0128,0,0,0,0,0,0,0.0044,0.0047,0.0065,0.0065,0.0055,0.0065,0.0066,0.0071,0.0082,0.0083,0.0075,0.0075,0.0092,0.0094,0.0096,0.0111,0.0102,0.0103,0.0104,0.0128,0.0128,0.0128,0,0,0,0,0,0,0.0044,0.0046,0.0064,0.0056,0.0058,0.0065,0.007,0.0071,0.0075,0.0083,0.0085,0.0078,0.0092,0.0094,0.0104,0.0111,0.0104,0.0104,0.0128,0.0128,0.0128,0.0138,0,0,0,0,0,0,0.0043,0.0046,0.0049,0.0056,0.0059,0.0071,0.007,0.0071,0.0076,0.0076,0.0086,0.0088,0.0092,0.0103,0.0105,0.0112,0.0105,0.0127,0.0128,0.0128,0.0137,0.0138,0.0139,0,0,0,0,0,0.0042,0.0048,0.0049,0.0051,0.0063,0.0071,0.0072,0.0077,0.0076,0.0079,0.0085,0.0087,0.0106,0.0104,0.0106,0.0114,0.0127,0.0128,0.0128,0.0137,0.0138,0.0139,0,0,0,0,0,0,0.0039,0.0049,0.005,0.0059,0.0064,0.0071,0.0076,0.0077,0.0084,0.0086,0.0091,0.0093,0.0103,0.0107,0.0104,0.0121,0.0117,0.0117,0.0122,0.0124,0.0125,0.0125,0.0106,0,0,0,0,0,0.004,0.0047,0.0054,0.0061,0.0064,0.007,0.0073,0.0077,0.0083,0.0086,0.0093,0.01,0.0107,0.0113,0.0119,0.0131,0.0121,0.0137,0.0138,0.0138,0.014,0.013,0.013,0.0129,0.0129,0.0129,0,0,0.004,0.0047,0.005,0.0061,0.0066,0.0076,0.0072,0.0079,0.0089,0.0088,0.0103,0.0103,0.011,0.0121,0.0127,0.0126,0.0132,0.0139,0.014,0.014,0.013,0.013,0.013,0.0129,0.0129,0.0129,0,0,0.0045,0.005,0.0059,0.0065,0.0074,0.008,0.0082,0.009,0.0096,0.0108,0.0108,0.0111,0.0126,0.013,0.0134,0.0143,0.0135,0.0147,0.0156,0.0146,0.0146,0.0146,0.0125,0.0123,0.015,0.015,0.015,0,0.0044,0.0058,0.0062,0.0073,0.0081,0.0082,0.0095,0.0101,0.0112,0.0118,0.0115,0.0128,0.013,0.0143,0.0145,0.0146,0.0135,0.0152,0.0147,0.0147,0.0146,0.0126,0.0123,0.015,0.015,0.015,0.015,0,0.0058,0.0069,0.0075,0.0091,0.01,0.011,0.012,0.0128,0.0133,0.0138,0.0149,0.0147,0.0155,0.0154,0.0153,0.0156,0.0147,0.0147,0.0144,0.0147,0.0125,0.0122,0.0151,0.0151,0.0151,0.0151,0,0,0.0058,0.008,0.0083,0.0097,0.0112,0.0123,0.0138,0.0154,0.0168,0.0168,0.0183,0.0183,0.0177,0.0181,0.0177,0.0166,0.0149,0.0157,0.0156,0.0136,0.0119,0.0119,0.0115,0.0149,0.0149,0.0149,0.0101,0,0.0068,0.0093,0.0102,0.0129,0.0144,0.0152,0.017,0.0183,0.0191,0.0205,0.0196,0.0209,0.019,0.0196,0.0181,0.0163,0.0144,0.0161,0.012,0.0118,0.0117,0.0113,0.0149,0.0099,0.0099,0.0098,0.0098,0,0.0081,0.0098,0.0124,0.0156,0.0164,0.018,0.021,0.0227,0.0241,0.0245,0.0245,0.0242,0.0232,0.0215,0.0173,0.0186,0.0151,0.0128,0.0126,0.0122,0.0114,0.0097,0.0093,0.0093,0.0094,0.0094,0.0094,0,0.0084,0.0115,0.0138,0.0149,0.0181,0.0198,0.022,0.024,0.0266,0.0274,0.029,0.0269,0.0269,0.0225,0.0175,0.0177,0.0121,0.0118,0.008,0.0078,0.0088,0.0089,0.0079,0.0079,0.0079,0.0079,0.0079,0,0.0094,0.0114,0.0144,0.0158,0.0196,0.0215,0.0258,0.0269,0.03,0.0331,0.0315,0.0325,0.0272,0.0238,0.0183,0.0123,0.0124,0.0078,0.0069,0.0092,0.0094,0.0086,0.0087,0.0077,0.0078,0.0078,0.0079,0,0.0094,0.0111,0.0143,0.0182,0.0198,0.0228,0.0291,0.0327,0.0343,0.0383,0.0391,0.0372,0.0324,0.0261,0.0185,0.014,0.0079,0.0052,0.0074,0.0067,0.0038,0.0041,0.001,0.0009,0.0009,0.0009,0.0009,0,0.0096,0.0111,0.0159,0.019,0.0211,0.0263,0.0307,0.0344,0.0384,0.0409,0.043,0.0398,0.0372,0.0262,0.0188,0.008,0.0063,0.0028,0.0038,0.0038,0.0032,0.0035,0.0038,0.0008,0.0008,0.0008,0.0008,0,0.0103,0.0118,0.0147,0.0208,0.0259,0.0318,0.0379,0.0406,0.0449,0.0466,0.0463,0.0413,0.0355,0.0264,0.0179,0.0101,0.0053,0.0024,0.0025,0.0033,0.0036,0.0031,0.0034,0.0007,0.0007,0.0007,0.0007,0,0.0109,0.013,0.0173,0.0229,0.0295,0.0357,0.0386,0.0435,0.047,0.0493,0.0483,0.0421,0.0385,0.0274,0.0196,0.0122,0.0104,0.008,0.0077,0.0077,0.0113,0.0127,0.0117,0,0,0,0,0,0.0116,0.0145,0.0198,0.0262,0.0329,0.0367,0.0434,0.046,0.0491,0.0495,0.0492,0.0436,0.0329,0.028,0.0206,0.0185,0.0087,0.0095,0.0056,0.0001,0.0002,0.0033,0,0,0,0,0,0,0.0124,0.0166,0.0196,0.0282,0.033,0.0406,0.0446,0.0466,0.0469,0.048,0.0423,0.0412,0.0304,0.0365,0.02,0.0179,0.0144,0.005,0.0048,0.0001,0.0002,0.0003,0.0035,0,0,0,0,0]}]]